Home > Weather > Wunstorf > Past weeks

Flag for Germany Weather for the Past 2 Weeks in Wunstorf, Lower Saxony, Germany

Now
50 °F

Cool.


Feels Like: 45 °F
Forecast: 44 / 51 °F
Wind: 15 mph from South

Location: Wunstorf Airport

Current Time: Feb 6, 2016 at 10:56:50 PM

Latest Report: Feb 6, 2016 at 9:20 PM


Visibility: N/A

Pressure: 29.68 "Hg

Humidity: 67%

Dew point: 39 °F

Location of WunstorfLocation

Historic Weather in Wunstorf — Graph

°F

Wunstorf Temperature Yesterday

Maximum temperature yesterday: 48 °F (at 6:20 PM)
Minimum temperature yesterday: 37 °F (at 2:20 AM)
Average temperature yesterday: 42 °F

High & Low Weather Summary for the Past Weeks

 TemperatureHumidityPressure
High54 °F (Jan 25, 1:20 PM)100% (Jan 23, 3:20 AM)30.30 "Hg (Jan 23, 3:20 AM)
Low28 °F (Jan 22, 9:20 PM)58% (Feb 2, 10:20 AM)29.59 "Hg (Jan 30, 2:20 PM)
Average45 °F83%29.97 "Hg
* Reported Jan 22 9:20 PM — Feb 6 9:20 PM, Wunstorf, Weather by CustomWeather, © 2016

Note: Actual official high and low records may vary slightly from our data, if they occured in-between our weather recording intervals... More about our weather records

Advertising

Wunstorf Weather History for the Previous 24 Hours

 ConditionsComfort  
Time TempWeatherWind HumidityBarometerVisibility
9:20 PM
Sat, Feb 6
50 °FCool.15 mph67%29.68 "HgN/A
8:20 PM50 °FCool.16 mph71%29.68 "HgN/A
7:20 PM48 °FCool.10 mph76%29.71 "HgN/A
6:20 PM46 °FCool.10 mph82%29.71 "HgN/A
5:20 PM46 °FCool.8 mph82%29.74 "HgN/A
4:20 PM50 °FCool.10 mph76%29.77 "HgN/A
3:20 PM52 °FCool.12 mph72%29.77 "HgN/A
2:20 PM52 °FCool.16 mph72%29.80 "HgN/A
1:20 PM52 °FCool.16 mph72%29.83 "HgN/A
12:20 PM52 °FCool.14 mph72%29.86 "HgN/A
11:20 AM50 °FCool.14 mph76%29.86 "HgN/A
10:20 AM48 °FCool.16 mph82%29.86 "HgN/A
9:20 AM46 °FCool.12 mph82%29.92 "HgN/A
8:20 AM45 °FQuite cool.10 mph87%29.92 "HgN/A
7:20 AM46 °FCool.10 mph82%29.92 "HgN/A
6:20 AM46 °FCool.9 mph87%29.95 "HgN/A
5:20 AM48 °FPassing clouds.10 mph82%29.98 "HgN/A
4:20 AM48 °FPassing clouds.14 mph82%29.98 "HgN/A
3:20 AM48 °FPassing clouds.10 mph82%30.01 "HgN/A
2:20 AM46 °FPassing clouds.7 mph93%30.01 "HgN/A
1:20 AM46 °FPartly cloudy.7 mph93%30.04 "HgN/A
12:20 AM46 °FPassing clouds.9 mph93%30.07 "HgN/A
11:20 PM
Fri, Feb 5
48 °FPassing clouds.7 mph94%30.07 "HgN/A
10:20 PM48 °FPassing clouds.7 mph94%30.07 "HgN/A
Weather by CustomWeather, © 2016

See weather overviewHow to use our weather pages